Theta_e
312 312 312 313 315 313 309 309 311 313 313 313 312 312 312 313 314 315 315 316 313 312 313 316 319 319 319 322 321 320 325 329 325 325 326 325 327 325 328 340 346 346 345 347 353
312 312 313 313 315 315 312 309 309 311 313 314 313 312 312 313 315 318 319 315 312 313 316 318 318 318 321 321 321 322 327 327 324 324 326 326 325 325 326 331 335 340 345 347 352
311 313 313 313 314 314 314 310 309 310 312 314 314 313 312 314 320 325 317 312 315 315 317 318 318 319 321 321 321 322 325 323 323 324 325 325 325 324 325 327 328 328 333 344 351
311 311 313 312 313 314 313 310 309 310 311 313 314 314 311 315 328 326 315 314 316 315 317 316 318 320 321 322 321 322 321 322 324 324 325 326 324 324 324 325 324 327 334 342 348
310 311 312 313 313 313 311 311 313 314 313 313 314 314 311 317 322 322 316 316 318 317 317 318 319 320 322 321 320 322 323 323 323 325 325 324 325 325 325 325 329 332 338 342 346
310 311 311 312 313 312 313 314 314 314 314 314 314 314 312 320 323 321 315 316 319 318 316 319 320 320 321 321 323 323 323 324 324 325 325 325 325 323 328 326 331 335 335 339 344
310 310 311 311 314 314 314 315 314 314 314 314 314 313 314 317 324 321 316 318 319 317 317 320 320 321 322 323 323 324 325 325 324 325 326 325 326 328 330 327 328 329 330 337 341
310 311 311 311 313 318 316 315 315 315 314 314 313 311 318 314 322 321 319 319 318 317 318 320 321 322 324 323 324 325 325 325 326 325 326 326 328 329 330 332 333 333 333 328 338
312 311 312 312 313 318 317 318 323 320 316 313 313 315 320 315 318 322 320 319 317 316 318 318 321 323 323 325 325 324 326 326 326 326 327 327 329 329 331 333 335 337 338 333 341
315 312 313 312 312 318 317 321 318 317 318 317 316 319 318 320 320 322 320 319 316 316 319 320 323 324 325 325 324 325 324 324 326 326 326 327 328 331 332 334 336 338 340 342 341
316 313 314 312 312 318 317 318 320 321 319 324 323 320 319 323 321 322 320 319 318 318 322 322 324 325 325 325 324 324 324 324 325 326 326 326 328 332 333 334 336 337 339 342 343
317 314 314 312 313 318 317 319 317 316 319 319 319 319 318 322 323 322 321 322 319 321 322 324 323 324 324 324 323 324 325 325 326 326 326 327 327 332 333 335 336 336 336 337 339
316 315 314 312 315 318 318 316 315 315 319 319 318 319 319 319 323 323 321 323 323 324 325 324 325 324 324 324 325 325 326 327 326 327 327 327 328 331 332 334 336 334 334 334 335
316 316 313 312 316 316 318 315 316 316 322 321 320 320 319 320 322 323 322 325 325 326 325 325 325 324 325 325 325 327 326 326 326 326 326 327 327 331 332 334 335 335 334 334 334
316 315 313 313 316 318 316 316 316 319 323 326 323 320 320 321 324 323 323 324 326 325 326 325 325 325 325 325 325 326 325 325 326 327 327 327 328 327 330 332 336 335 334 333 333
315 314 312 315 315 316 315 315 319 325 321 327 323 322 321 321 323 323 323 323 324 325 325 325 323 324 325 324 325 325 325 326 326 326 327 328 327 327 331 329 334 334 334 333 333
315 314 314 316 317 317 316 318 324 322 323 325 324 323 324 323 325 325 326 326 325 326 326 325 324 323 323 325 324 325 327 328 330 329 328 328 327 327 333 332 333 334 334 333 332
314 316 315 316 317 318 318 322 322 319 323 323 323 323 325 325 324 325 326 327 326 326 326 327 327 325 324 325 326 326 327 328 327 328 327 330 327 328 331 332 332 332 332 332 332
313 318 317 317 317 317 320 323 321 323 321 321 322 323 325 324 324 325 325 327 327 327 328 328 327 325 325 325 326 326 328 327 328 328 329 327 328 332 332 333 331 331 332 331 331
312 316 316 316 316 317 321 318 319 320 319 320 321 321 323 323 323 325 327 325 326 325 326 328 329 326 326 326 327 327 327 329 328 329 332 330 328 329 334 334 333 332 331 332 331
309 318 314 311 316 319 322 320 319 318 317 320 320 321 321 321 321 323 323 323 323 323 324 326 328 327 326 327 326 328 328 328 328 329 330 330 328 329 329 330 333 332 331 331 331
309 318 311 308 319 318 319 315 313 317 316 317 318 320 321 321 321 321 321 323 320 321 324 326 329 328 327 325 325 326 328 328 331 330 330 329 328 328 327 327 327 330 331 329 329
307 310 307 311 316 312 310 309 311 314 314 315 317 317 319 320 321 322 321 320 318 321 324 325 324 326 326 326 324 325 326 327 328 330 332 332 330 326 327 327 329 329 329 328 328
307 310 306 307 305 308 308 309 309 309 310 311 313 314 316 318 319 320 320 319 316 318 317 319 324 325 327 326 325 326 325 326 329 334 329 328 327 328 327 327 327 326 325 326 326
303 306 301 307 305 306 306 306 308 308 308 309 313 311 311 314 316 317 318 316 317 315 318 322 324 323 323 322 322 322 322 323 326 326 328 326 326 325 325 325 324 324 324 325 325
301 301 301 303 304 304 305 308 306 306 306 308 308 308 307 310 312 313 313 313 316 316 317 319 322 322 322 321 321 321 321 321 321 321 322 323 324 323 322 322 321 321 323 324 324
300 300 302 301 301 302 305 302 301 302 302 304 303 303 304 305 305 305 305 306 308 311 314 316 319 321 323 321 321 322 321 321 321 321 321 321 322 322 323 322 321 320 320 322 323
Wind_Speed
10 7 6 4 3 3 4 5 5 5 5 4 3 3 3 4 5 7 8 8 12 11 15 13 10 8 6 6 5 4 7 8 5 7 4 5 6 6 3 1 3 4 1 2 10
13 10 7 5 3 3 3 4 5 5 5 5 4 3 3 3 4 7 6 9 10 12 16 14 13 11 10 8 5 8 8 1 3 3 3 4 4 5 2 3 6 4 1 4 10
16 12 10 7 4 3 3 4 5 6 6 6 5 4 3 2 2 2 4 9 13 14 13 13 11 12 10 8 7 4 7 5 6 1 4 5 4 1 4 5 7 5 4 5 9
17 15 11 9 5 3 3 3 4 6 7 7 6 4 3 3 1 3 5 13 13 12 12 13 14 13 10 9 7 8 3 4 3 2 4 5 3 4 3 8 6 5 5 5 9
18 16 13 10 6 3 2 2 3 5 6 7 6 4 3 4 2 3 8 15 10 11 12 14 15 11 10 8 8 8 6 4 6 3 3 2 3 1 2 9 7 5 3 5 7
18 17 14 10 7 4 2 1 2 3 6 8 7 5 4 6 6 7 11 14 10 10 13 13 9 7 7 7 9 5 5 5 5 4 4 6 3 4 8 9 4 3 5 7 8
18 17 14 10 6 4 2 2 1 1 4 6 6 6 5 2 8 10 13 9 10 11 13 8 8 8 10 8 4 5 9 8 9 8 5 4 10 5 7 5 5 6 6 7 10
18 17 15 9 5 4 3 2 1 1 3 4 5 4 4 9 11 12 13 10 10 10 10 9 4 6 6 4 6 8 7 10 9 10 5 7 12 6 6 6 8 10 11 8 4
19 17 16 9 4 2 4 2 2 2 3 4 3 3 3 9 10 14 13 9 11 9 8 8 4 5 7 11 9 8 6 7 10 7 0 8 9 7 4 5 8 11 14 14 7
20 17 15 9 3 1 3 0 2 4 4 4 6 5 7 7 12 15 13 11 11 13 10 9 9 9 9 9 9 8 8 7 8 9 9 8 5 5 4 4 6 9 12 13 12
21 18 15 7 3 2 1 1 1 2 6 8 1 3 6 7 10 13 15 14 12 17 12 16 10 12 13 5 2 4 6 8 6 4 6 11 6 5 5 3 4 7 10 11 12
21 18 14 5 4 4 1 0 3 4 9 12 14 15 10 6 10 14 18 14 17 15 16 8 14 9 4 7 8 9 10 10 5 5 6 8 10 8 5 4 5 5 8 10 10
21 16 11 2 6 5 4 1 4 5 7 4 7 11 13 15 11 20 24 19 15 16 15 15 1 5 13 11 11 12 11 7 9 7 9 9 13 14 10 8 7 7 7 7 8
19 15 9 4 4 6 2 5 8 5 5 7 5 4 10 11 11 13 24 16 9 14 14 11 11 10 13 13 13 13 12 10 8 9 10 7 11 14 15 12 7 6 6 6 6
17 13 7 3 5 0 5 6 7 1 4 4 5 3 7 17 9 15 22 16 14 10 8 7 11 16 16 16 13 12 6 11 10 11 12 14 8 11 11 12 12 9 8 6 7
13 11 6 7 6 5 7 5 1 5 4 4 4 5 8 17 6 10 15 15 13 11 13 15 4 8 9 8 12 5 9 9 11 13 15 17 16 11 14 13 12 12 10 9 8
11 5 6 5 3 8 5 2 5 5 2 3 1 1 6 10 15 9 17 18 13 13 15 18 18 15 12 12 12 11 12 9 11 9 13 0 7 13 8 6 10 14 13 11 10
12 3 4 6 6 8 3 5 6 3 3 5 4 10 8 8 14 17 11 17 22 17 12 13 15 21 14 21 15 20 16 12 10 10 8 8 7 5 6 10 10 13 13 13 13
11 2 4 7 6 7 7 6 4 4 5 8 11 9 10 8 6 9 19 18 17 19 17 9 16 5 6 15 18 12 11 11 15 13 11 14 9 9 10 10 13 14 15 16 16
13 2 8 10 8 4 5 3 2 4 8 5 6 3 6 4 7 8 15 7 19 12 21 19 19 9 9 7 8 11 7 8 10 14 17 11 13 10 14 17 15 16 18 18 18
13 2 10 13 6 4 4 4 3 2 8 4 7 9 11 10 9 11 7 2 5 7 10 13 12 16 8 14 20 10 14 13 11 13 14 15 11 9 12 14 16 19 19 19 20
11 1 15 17 4 2 2 5 6 6 5 5 7 10 13 13 13 16 14 11 5 7 8 9 7 14 20 9 6 12 16 20 12 18 11 13 14 4 4 4 11 16 19 20 20
9 5 12 9 2 4 5 5 4 6 6 5 5 3 6 8 8 14 14 1 7 5 4 6 9 12 18 12 6 13 17 16 18 16 21 15 12 3 5 8 11 16 19 20 20
6 3 6 11 9 6 7 3 4 5 4 6 8 8 9 12 13 9 11 1 10 4 7 4 14 17 18 20 10 14 17 14 17 15 19 22 22 12 9 10 14 16 19 20 22
9 5 5 5 7 10 7 5 9 6 6 7 5 6 8 7 13 17 12 11 12 2 6 4 17 19 22 23 22 16 18 16 20 22 22 21 22 16 8 11 14 17 18 19 23
7 7 7 4 8 9 3 6 10 10 8 8 8 13 14 13 15 19 10 11 10 7 10 4 14 16 23 19 18 21 24 24 25 23 23 23 24 14 14 13 15 13 16 22 24
11 8 5 4 9 7 6 10 14 13 9 7 17 17 17 16 17 18 22 23 22 18 12 9 10 16 25 19 20 24 25 28 28 27 25 25 22 16 17 14 15 16 18 21 22
Wind_Direction
9 357 338 314 290 274 254 241 236 231 229 231 233 240 245 251 258 257 255 225 207 189 182 184 184 192 194 211 215 232 247 228 142 202 91 39 2 60 50 148 190 173 106 101 160
14 6 354 334 305 281 265 247 236 232 229 229 231 239 251 267 272 261 244 200 193 180 173 174 181 182 194 205 205 242 252 132 50 61 330 330 335 355 245 136 152 172 164 163 172
15 10 3 350 324 292 270 251 237 231 224 224 225 232 241 261 233 159 217 174 161 166 177 182 179 182 200 202 189 187 268 133 151 347 316 309 253 312 272 208 48 11 36 200 192
11 8 5 0 345 307 279 248 241 237 224 217 214 218 213 184 256 175 162 158 152 152 163 169 177 190 199 198 187 212 171 190 135 162 294 287 306 217 251 23 339 314 317 216 206
6 4 2 2 359 339 305 264 248 243 226 212 204 203 201 231 170 193 170 166 162 160 169 174 181 188 190 170 181 230 177 193 209 232 267 277 222 332 50 344 322 300 290 248 233
3 360 357 356 360 357 340 314 275 253 220 205 199 194 193 228 189 167 160 169 175 170 172 170 184 199 163 170 229 160 216 230 226 223 172 253 162 217 24 347 346 303 270 256 250
357 355 352 348 349 353 342 338 326 231 195 198 200 199 226 309 184 164 159 167 181 175 171 170 156 193 165 166 169 190 241 200 211 190 163 241 179 74 1 3 11 356 327 279 252
352 350 348 340 334 346 327 313 304 239 204 203 204 208 255 210 185 175 169 166 174 172 180 171 154 165 211 134 183 225 237 205 146 190 159 215 158 85 22 21 25 17 10 354 280
348 346 343 334 312 327 336 280 289 258 230 214 219 217 194 195 190 184 173 175 170 170 170 179 175 195 180 206 194 198 193 224 164 185 175 226 141 100 40 40 41 31 30 33 49
345 343 339 329 281 280 351 180 278 274 246 246 237 241 211 194 181 176 179 175 165 167 163 188 201 205 216 215 228 176 195 199 212 179 223 221 202 126 82 64 54 43 41 46 50
344 342 338 326 226 179 6 47 284 223 227 236 111 279 145 150 163 176 174 168 173 183 194 199 216 213 206 224 298 225 233 229 202 177 244 236 242 156 138 112 76 53 44 47 47
350 344 341 330 182 169 112 312 35 316 290 256 245 239 227 184 177 183 177 183 183 199 207 185 227 224 179 194 207 216 222 218 216 184 244 208 233 173 153 120 86 64 56 50 48
354 353 353 20 161 168 133 114 342 340 268 239 224 229 214 206 211 188 184 201 205 214 203 232 102 244 198 197 210 217 230 216 253 173 232 257 243 194 168 148 120 83 78 63 60
359 2 15 82 127 179 203 310 328 330 270 147 188 187 191 187 220 198 193 194 210 224 216 242 199 183 194 210 215 233 211 233 228 239 253 192 271 177 173 169 161 127 110 94 84
7 8 30 64 114 109 269 304 318 290 265 124 128 170 184 190 121 189 194 205 224 201 199 212 204 210 226 226 208 244 172 226 232 249 263 240 243 262 171 193 173 155 139 127 113
10 25 57 80 52 350 306 287 259 234 217 137 123 180 172 207 206 150 182 212 238 234 223 251 181 207 213 188 198 167 197 227 243 251 243 242 248 252 190 215 158 160 152 149 143
2 14 40 52 358 0 347 196 242 249 82 90 66 317 244 209 218 196 191 202 208 210 224 219 223 221 231 200 193 208 224 234 217 212 247 315 243 242 101 135 169 166 161 163 161
358 298 347 1 342 351 3 235 251 45 351 4 311 297 244 204 220 217 219 217 219 232 272 224 222 212 200 226 213 206 224 249 262 257 244 142 234 225 140 151 157 161 165 167 173
357 286 346 338 329 336 284 248 333 8 348 329 306 259 237 219 253 219 228 233 225 215 232 234 247 140 231 214 226 210 226 262 276 263 266 269 242 167 167 177 176 174 176 181 184
358 148 4 342 334 319 261 299 316 9 335 294 284 277 272 240 245 215 237 232 240 251 225 246 256 214 172 206 214 255 246 214 223 257 257 256 252 276 181 197 190 190 191 189 190
10 213 355 3 352 263 290 36 319 360 354 301 294 282 272 278 271 270 278 199 246 203 233 239 232 238 194 218 235 195 231 234 278 269 272 268 261 183 200 197 198 204 197 192 193
10 297 346 351 262 11 25 344 332 318 335 297 289 280 272 284 275 261 259 256 5 285 227 214 248 238 223 229 301 283 257 229 229 245 238 271 274 115 158 202 212 200 196 197 199
354 333 348 17 45 16 349 300 293 333 346 322 289 346 324 279 276 251 265 33 354 275 310 206 232 245 242 213 222 248 238 247 255 255 259 259 245 120 149 185 193 189 188 198 199
357 334 14 48 45 345 353 339 320 333 292 325 307 286 307 264 254 267 261 127 326 343 324 291 248 251 250 258 262 226 222 232 234 238 248 244 259 189 175 192 186 196 203 204 202
21 50 12 344 8 347 338 329 316 325 326 331 202 30 336 279 273 262 265 301 257 348 299 289 248 247 254 264 271 268 255 219 231 244 249 258 261 272 221 218 217 219 218 206 208
36 359 343 10 338 330 36 38 322 351 319 310 304 335 314 286 288 297 302 293 282 330 304 247 260 254 258 256 258 255 253 257 258 254 249 260 256 262 271 231 255 232 221 216 217
30 5 337 59 346 334 23 341 321 324 296 335 328 307 294 297 310 295 286 281 275 283 288 286 269 244 255 255 259 255 250 249 253 249 251 251 258 254 253 229 241 250 245 226 227